Location: Unspecified
(41.5516°N, 88.1098°W)
Time: 01:12:21
(UTC-05:00)

Resurs 1-4 Rocket - Visible Passes

Search period start: 22 September 2014 00:00
Search period end: 02 October 2014 00:00
Orbit: 801 x 814 km, 98.3° (Epoch: 20 September)

Date Brightness Start Highest point End Pass type
(mag) Time Alt. Az. Time Alt. Az. Time Alt. Az.
22 Sep 3.3 04:24:07 10° NNE 04:29:07 40° E 04:34:05 10° SSE visible
22 Sep 3.1 06:04:23 10° N 06:08:45 27° WNW 06:13:07 10° WSW visible
23 Sep 4.1 04:00:14 10° NE 04:04:32 24° E 04:08:48 10° SSE visible
23 Sep 2.5 05:39:33 10° N 05:44:32 43° WNW 05:49:31 10° SW visible
24 Sep 4.8 03:37:00 10° ENE 03:39:52 15° E 03:42:43 10° ESE visible
24 Sep 2.0 05:14:56 10° N 05:20:14 70° WNW 05:25:30 10° SSW visible
25 Sep 2.3 04:50:30 10° NNE 04:55:50 72° ESE 05:01:08 10° S visible
26 Sep 3.2 04:26:18 10° NNE 04:31:21 43° E 04:36:22 10° S visible
26 Sep 3.2 06:06:40 10° NNW 06:10:57 25° WNW 06:15:14 10° WSW visible
27 Sep 4.1 04:02:23 10° NE 04:06:47 26° E 04:11:09 10° SSE visible
27 Sep 2.6 05:41:48 10° N 05:46:45 40° WNW 05:51:40 10° SW visible
28 Sep 4.7 03:39:01 10° NE 03:42:07 16° E 03:45:12 10° SE visible
28 Sep 2.1 05:17:10 10° N 05:22:27 66° WNW 05:27:42 10° SSW visible
29 Sep 2.2 04:52:43 10° NNE 04:58:04 76° ESE 05:03:22 10° S visible
30 Sep 3.1 04:28:29 10° NNE 04:33:35 45° E 04:38:39 10° S visible
30 Sep 3.2 06:08:58 10° NNW 06:13:09 24° WNW 06:17:20 10° WSW visible
01 Oct 4.0 04:04:31 10° NE 04:09:02 27° E 04:13:30 10° SSE visible
01 Oct 2.6 05:44:04 10° N 05:48:57 38° WNW 05:53:49 10° SW visible
